Погода в Шадринске

Погода в Шадринске : погода сейчас, прогноз погоды и архив. Всё, что Вы хотите узнать о погоде в Шадринске!

Хотите узнать прогноз погоды в Шадринске? Тогда Вам сюда: Погода в Шадринске

Поиск расширенной информации на нашем сайте:

Полезная информация:

Другие новости

Новости СМИ2

Главная страница сайта

Новости сайта

03.07.2017

Напоминаем, что на нашем специализированном сайте Метеоцентр.Азия вы можете получить высокодетализированные автоматические прогнозы погоды по пунктам России, СНГ и мира в авиационном формате (включающие направление и скорость ветра, видимость, явления погоды, количество и форму облачности, нижнюю и верхнюю границу облачности).

Рекомендуем:

Погода в Шадринске - сегодня

Время (UTC), дата Ветер
(°,м/с) 
Видим.   Явления Облачность Т
(°С)
Тd
(°С)
f(%) Тe
(°С)
Pmin
(гПа)
dP
(гПа)
Po
(мм)
O2
(г/м3)
Тmin Tmax R s Состояние
почвы
21 18.05.19 220 (ЮЗ) 10 км    8/8 600 м кучево-дожд. 
[Cb cap]
+5.2 +3.6 89 +6  999.9  -1.4  742  293           
00 19.05.19 240 (ЮЗ) 10 км  {ливн. осадки}  10/10 600 м кучево-дожд. 
[Cb cap]
+4.5 +3 90 +5  999.2  -0.8  741  293           
03 19.05.19 280 (З) 10 км    10/10 600 м кучево-дожд. 
[Cb cap]
+5.4 +3.1 85 +4  998.8  -0.3  741  292  +4      мокрая 
06 19.05.19 280 (З) 10 км  слаб. ливневой дождь  10/10 600 м кучево-дожд. 
[Cb cap]
+4.9 +2.4 84 +3  999.3  0.4  741  293           
09 19.05.19 270 (З) 10 км  слаб. ливневой дождь  10/10 300 м кучево-дожд. 
[Cb cap]
+5.1 +2.7 84 +4  1000.5  1.2  742  293           
12 19.05.19 300 (СЗ) 10 км  в посл. час ливневой дождь  10/10 300 м кучево-дожд. 
[Cb cap]
+5.2 +2.8 84 +5  1002.1  1.6  743  293           
15 19.05.19 280 (З) 10 км  {ливн. осадки}  10/10 600 м кучево-дожд. 
[Cb cap]
+6.1 +2.2 76 +5  1003.1  744  293    +7     
18 19.05.19 260 (З) 10 км  {ливн. осадки}  9/9 600 м кучево-дожд. 
[Cb cap]
+4.7 +1.4 79 +4  1003.9  0.8  745  295           
21 19.05.19 260 (З) 10 км    9/9 600 м кучево-дожд. 
[Cb cap]
+3.4 +0.4 81 +4  1004.4  0.5  745  296           
00 20.05.19 260 (З) 10 км    9/9 600 м кучево-дожд. 
[Cb cap]
+2.9 +0.5 84 +4  1005.1  0.6  746  297           
03 20.05.19 270 (З) 10 км    8/8 600 м кучево-дожд., верхняя 
[Cb cap|Ci sp]
+5.3 +1.6 77 +5  1005  0.1  746  294  +2.6        мокрая 
06 20.05.19 260 (З) 10 км    8/8 600 м кучево-дожд. 
[Cb cap]
+9.8 +1.2 55 +9  1004.5  -0.3  745  290           
09 20.05.19 310 (СЗ) 10 км    9/9 600 м кучево-дожд. 
[Cb cap]
+11 -1.1 43 +10  1004.4  -0.3  745  289           
12 20.05.19 280 (З) 3{10}  10 км    10/10 600 м кучево-дожд. 
[Cb cap]
+9.1 -0.1 52 +9  1005.4  0.9  746  291           
15 20.05.19 260 (З) 10 км    10/8 600 м кучево-дожд., верхняя 
[Cb cap|Ci sp]
+7.5 +1.2 64 +7  1005.9  0.5  746  292    +11.5       
18 20.05.19 260 (З) 10 км    6/6 600 м кучево-дожд. 
[Cb cap]
+4.3 +0.9 79 +4  1006.6  0.6  747  296           
21 20.05.19 270 (З) 10 км    4/4 600 м 
[Sc]
+2.3 +0.1 85 +2  1006.8  0.1  747  298           
00 21.05.19 280 (З) 10 км    4/4 600 м 
[Sc]
+1.1 -0.4 90 +2  1007.3  0.5  747  300           
03 21.05.19 290 (З) 10 км    10/10 600 м кучево-дожд. 
[Cb cap]
+5.1 +2.1 81 +4  1007.6  0.4  748  295  +1.1        влажная 
06 21.05.19 280 (З) 10 км  {ливн. осадки}  9/9 600 м кучево-дожд. 
[Cb cap]
+8.1 +2.1 66 +7  1007.2  -0.2  747  292           
09 21.05.19 310 (СЗ) 10 км  в посл. час ливневой дождь  10/9 600 м кучево-дожд., верхняя 
[Cb cap|Ci sp]
+6.7 +2.5 75 +6  1008.4  1.1  748  294           
12 21.05.19 320 (СЗ) 4{12}  10 км  в посл. час ливневой дождь  9/8 600 м кучево-дожд., средняя, верхняя 
[Cb cap|Ac trans|Ci sp]
+7.9 -0.2 57 +7  1009.8  1.4  749  293           
15 21.05.19 320 (СЗ) 2{10}  10 км    10/9 600 м кучево-дожд., верхняя 
[Cb cap|Ci sp]
+6.8 +0.7 65 +7  1011.2  1.4  750  295    +9.1     
18 21.05.19 320 (СЗ) 10 км    10/10 600 м кучево-дожд. 
[Cb cap]
+5.3 +0.5 71 +6  1012.4  1.2  751  297           
21 21.05.19 200 (Ю) 10 км    8/6 600 м кучево-дожд., средняя, верхняя 
[Cb cap|Ac trans|Ci sp]
+2.8 +0.4 84 +4  1012.7  0.2  751  300           
Время (UTC), дата Ветер
(°,м/с) 
Видим.   Явления Облачность Т
(°С)
Тd
(°С)
f(%) Тe
(°С)
Pmin
(гПа)
dP
(гПа)
Po
(мм)
O2
(г/м3)
Тmin Tmax R s Состояние
почвы

Для получения пояснительной информации подведите курсор к названию столбца.

ПОГОДА в Шадринске - архив

Всё, что Вы хотите узнать о погоде в Шадринске - удобно и подробно!

Выберите нужную дату (начиная с 1 января 2018* года) и нажмите кнопку "Найти".
Будут отображены архивные сводки погоды по пункту Шадринск, начиная с указанной даты.


Отображать данные в формате CSV (для использования в таблицах Excel)


Внимание! Наш архив погоды предназначен исключительно для личного некоммерческого использования в познавательных целях. Если Вам необходимы официальные справки о состоянии погоды (для производственных, юридических, коммерческих и т.п. целей), обращайтесь в органы Росгидромета.

*Примечание: данная дата относится к архиву по метеостанциям СССР (Россия, СНГ, Балтия).
Архив по метеостанциям Зарубежной Европы и Азии (кроме Китая) хранится 10 дней, по другим регионам земного шара (Китай, Африка, Америка, Австралия, Океания) - 1 день.

Шадринск - район местоположения метеостанции


Название, широта, долгота, высота метеостанции:
Шадринск 56.1°ш. 63.6°д. 89 м над ур. моря [Российская Федерация]

Дополнительная информация

В oтличие oт бoльшинства пoгoдных сайтoв мы публикуем пoдрoбную метеoинфoрмацию в детальнoм прoфессиoнальнoм фoрмате.

Характеристики температуры и влажнoсти вoздуха измеряются на высoте 2 м в тени вдали oт зданий и деревьев.
Скoрoсть ветра измеряется на высoте 10 м (на урoвне рoста челoвека скoрoсть ветра ниже в 1.5-2 раза). Если метеoстанция нахoдится в гoрoде или в лесу, тo скoрoсть ветра занижена на 2-4 м/с пo сравнению с oткрытым местoм. Скoрoсть ветра над акватoриями крупных рек и oзёр, а также на вершинах хoлмoв на 2-5 м/с выше, чем в oбычных услoвиях.
Атмoсфернoе давление в разных тoчках местнoсти мoжет значительнo oтличаться oт давления на метеoстанции, в зависимoсти oт услoвий рельефа (при пoдъёме на 10 м давление пoнижается примернo на 1 мм рт.ст.).